Change the Weather History Date:

Wednesday, May 8, 2013

  Actual Average Record
Temperature  
Mean Temperature 64 °F 64 °F  
Max Temperature 75 °F 75 °F 91 °F (2010)
Min Temperature 52 °F 54 °F 38 °F (1989)
Degree Days  
Heating Degree Days 1 3  
Month to date heating degree days 32 30  
Since 1 July heating degree days 2842 3191  
Cooling Degree Days 0 3  
Month to date cooling degree days 4 18  
Year to date cooling degree days 58 60  
Growing Degree Days 14 (Base 50)    
Moisture  
Dew Point 55 °F    
Average Humidity 71    
Maximum Humidity 93    
Minimum Humidity 49    
Precipitation  
Precipitation T in 0.11 in 1.71 in (1965)
Month to date precipitation 0.27 0.84  
Year to date precipitation 9.75 14.40  
Snow  
Snow 0.00 in - T in (1954)
Month to date snowfall 0.0  
Since 1 July snowfall T  
Snow Depth 0.00 in    
Sea Level Pressure  
Sea Level Pressure 29.98 in    
Wind  
Wind Speed 7 mph (South)    
Max Wind Speed 16 mph    
Max Gust Speed 21 mph    
Visibility 10 miles    
Events Rain    
T = Trace of Precipitation, MM = Missing Value Source: NWS Daily Summary

Daily Weather History Graph

Daily Weather History Graph

Search for Another Location

Airport or City:

Trip Planner

Search our weather history database for the weather conditions in past years. The results will help you decide how hot, cold, wet, or windy it might be!

Date:

Astronomy

May. 08, 2013 Rise Set
Actual Time 6:04 AM EDT 7:58 PM EDT
Civil Twilight 5:36 AM EDT 8:26 PM EDT
Nautical Twilight 5:02 AM EDT 9:01 PM EDT
Astronomical Twilight 4:25 AM EDT 9:37 PM EDT
Moon 5:08 AM EDT (5/8) 6:56 PM EDT (5/8)
Length of Visible Light 14h 50m
Length of Day
13h 54m
Waning Crescent, 2% of the Moon is Illuminated
May 8
Waning Crescent
May 9
New
May 18
First Quarter
May 25
Full
May 31
Last Quarter

Hourly Weather History & Observations

Time (EDT) Temp. Dew Point Humidity Pressure Visibility Wind Dir Wind Speed Gust Speed Precip Events Conditions
12:54 AM 57.9 °F 55.0 °F 90% 29.98 in 10.0 mi SSE 4.6 mph - N/A   Clear
1:54 AM 57.0 °F 54.0 °F 89% 29.97 in 10.0 mi South 3.5 mph - N/A   Clear
2:54 AM 57.0 °F 54.0 °F 89% 29.95 in 10.0 mi South 5.8 mph - N/A   Clear
3:54 AM 57.9 °F 54.0 °F 87% 29.96 in 10.0 mi SSW 8.1 mph - N/A   Clear
4:54 AM 55.9 °F 54.0 °F 93% 29.95 in 10.0 mi SSW 5.8 mph - N/A   Clear
5:54 AM 57.0 °F 54.0 °F 89% 29.96 in 10.0 mi South 6.9 mph - N/A   Clear
6:54 AM 57.0 °F 55.9 °F 96% 29.99 in 10.0 mi South 3.5 mph - N/A   Clear
7:54 AM 62.1 °F 57.0 °F 84% 30.01 in 10.0 mi WSW 4.6 mph - N/A   Clear
8:54 AM 64.0 °F 55.9 °F 75% 30.02 in 10.0 mi Calm Calm - N/A   Clear
9:54 AM 66.0 °F 57.0 °F 73% 30.03 in 10.0 mi Variable 5.8 mph - N/A   Partly Cloudy
10:54 AM 66.9 °F 55.0 °F 66% 30.04 in 10.0 mi SSW 9.2 mph - N/A   Partly Cloudy
11:54 AM 71.1 °F 55.0 °F 57% 30.02 in 10.0 mi SSW 10.4 mph - N/A   Clear
12:54 PM 71.1 °F 55.9 °F 59% 30.01 in 10.0 mi SSW 9.2 mph 20.7 mph N/A   Scattered Clouds
1:54 PM 72.0 °F 54.0 °F 53% 30.00 in 10.0 mi South 8.1 mph - N/A   Partly Cloudy
2:54 PM 72.0 °F 52.0 °F 49% 29.98 in 10.0 mi South 8.1 mph - N/A   Mostly Cloudy
3:54 PM 73.0 °F 57.9 °F 59% 29.96 in 10.0 mi ESE 11.5 mph - N/A   Clear
4:54 PM 71.1 °F 55.0 °F 57% 29.95 in 10.0 mi Variable 4.6 mph - N/A   Mostly Cloudy
5:54 PM 71.1 °F 54.0 °F 55% 29.94 in 10.0 mi SSW 11.5 mph - N/A   Clear
6:54 PM 70.0 °F 55.9 °F 61% 29.95 in 10.0 mi South 8.1 mph - N/A   Overcast
7:54 PM 68.0 °F 55.0 °F 63% 29.96 in 10.0 mi South 10.4 mph - N/A   Overcast
8:54 PM 66.9 °F 55.0 °F 66% 29.97 in 10.0 mi South 8.1 mph - 0.00 in Rain Light Rain
9:54 PM 66.0 °F 55.0 °F 68% 29.99 in 10.0 mi South 5.8 mph - 0.00 in Rain Light Rain
10:54 PM 64.9 °F 55.0 °F 70% 29.98 in 10.0 mi South 5.8 mph - 0.00 in   Overcast
11:54 PM 64.9 °F 55.9 °F 73% 29.97 in 10.0 mi South 9.2 mph - N/A   Mostly Cloudy